This is the latest recevied weather packets stored in our database for station/object K0NV. If no packets are shown the sender has not sent any weather packets the latest 10 day(s).
| Time | Temp. | Humidity | Pressure | Rain* | Wind** | Luminosity | Snow |
|---|---|---|---|---|---|---|---|
| 1777485737 | 16.11° C | 63% | 1019.7 hPa | 0 mm | - | 751 W/m² | - |
| 1777485432 | 15.56° C | 67% | 1019.7 hPa | 0 mm | - | 769 W/m² | - |
| 1777485128 | 16.11° C | 67% | 1019.6 hPa | 0 mm | - | 791 W/m² | - |
| 1777484825 | 15.56° C | 67% | 1019.7 hPa | 0 mm | - | 789 W/m² | - |
| 1777484522 | 16.11° C | 66% | 1019.9 hPa | 0 mm | - | 758 W/m² | - |
| 1777484219 | 15.56° C | 68% | 1019.9 hPa | 0 mm | - | 435 W/m² | - |
| 1777483915 | 16.11° C | 66% | 1019.8 hPa | 0 mm | - | 758 W/m² | - |
| 1777483611 | 15.56° C | 70% | 1020 hPa | 0 mm | - | 783 W/m² | - |
| 1777483306 | 15° C | 71% | 1020 hPa | 0 mm | - | 674 W/m² | - |
| 1777483003 | 15° C | 69% | 1019.9 hPa | 0 mm | - | 379 W/m² | - |
| 1777482699 | 15° C | 68% | 1020 hPa | 0 mm | - | 627 W/m² | - |
| 1777482396 | 15.56° C | 68% | 1019.9 hPa | 0 mm | - | 629 W/m² | - |
| 1777482093 | 15.56° C | 69% | 1020.1 hPa | 0 mm | - | 780 W/m² | - |
| 1777481792 | 15° C | 69% | 1020.1 hPa | 0 mm | - | 573 W/m² | - |
| 1777481488 | 14.44° C | 71% | 1020.2 hPa | 0 mm | - | 615 W/m² | - |
| 1777481184 | 14.44° C | 68% | 1020.2 hPa | 0 mm | - | 678 W/m² | - |
| 1777480881 | 14.44° C | 67% | 1020.3 hPa | 0 mm | - | 407 W/m² | - |
| 1777480577 | 14.44° C | 69% | 1020.6 hPa | 0 mm | - | 559 W/m² | - |
| 1777480275 | 13.89° C | 71% | 1020.5 hPa | 0 mm | - | 383 W/m² | - |
| 1777479970 | 13.89° C | 71% | 1020.7 hPa | 0 mm | - | 718 W/m² | - |
| 1777479668 | 14.44° C | 71% | 1020.7 hPa | 0 mm | - | 654 W/m² | - |
| 1777479366 | 13.89° C | 74% | 1020.7 hPa | 0 mm | - | 717 W/m² | - |
| 1777479062 | 13.33° C | 74% | 1020.8 hPa | 0 mm | - | 621 W/m² | - |
| 1777478758 | 14.44° C | 71% | 1020.8 hPa | 0 mm | - | 435 W/m² | - |
| 1777478455 | 13.89° C | 72% | 1020.7 hPa | 0 mm | - | 583 W/m² | - |
* Rain latest hour (hover to see other rain measurements)
** Current wind speed in m/s (hover to see current wind gust speed)